Weather History for Wilmington, DE

Change the Weather History Date:

Sunday, October 28, 2012

  Actual Average Record
Temperature  
Mean Temperature 57 °F 52 °F  
Max Temperature 60 °F 62 °F 83 °F (1919)
Min Temperature 54 °F 42 °F 23 °F (1936)
Degree Days  
Heating Degree Days 8 13  
Month to date heating degree days 187 250  
Since 1 July heating degree days 228 302  
Cooling Degree Days 0 0  
Month to date cooling degree days 26 15  
Year to date cooling degree days 1387 1142  
Growing Degree Days 6 (Base 50)    
Moisture  
Dew Point 50 °F    
Average Humidity 75    
Maximum Humidity 89    
Minimum Humidity 60    
Precipitation  
Precipitation 0.80 in 0.10 in 3.00 in (1907)
Month to date precipitation 2.04 3.11  
Year to date precipitation 27.20 36.19  
Snow  
Snow 0.00 in 0.00 in 0.00 in (1894)
Month to date snowfall 0.0 0.0  
Since 1 July snowfall 0.0 0.0  
Since 1 September snowfall 0.0 0.0  
Snow Depth 0.00 in    
Sea Level Pressure  
Sea Level Pressure 29.74 in    
Wind  
Wind Speed 15 mph (NNE)    
Max Wind Speed 26 mph    
Max Gust Speed 36 mph    
Visibility 9 miles    
Events Rain    
T = Trace of Precipitation, MM = Missing Value Source: NWS Daily Summary

Daily Weather History Graph

Daily Weather History Graph

Search for Another Location

Airport:

Trip Planner

Search our weather history database for the weather conditions in past years. The results will help you decide how hot, cold, wet, or windy it might be!

Date:

Astronomy

Oct. 28, 2012 Rise Set
Actual Time 7:26 AM EDT 6:04 PM EDT
Civil Twilight 6:59 AM EDT 6:32 PM EDT
Nautical Twilight 6:27 AM EDT 7:04 PM EDT
Astronomical Twilight 5:56 AM EDT 7:35 PM EDT
Moon 5:21 PM EDT (10/28) 6:17 AM EDT (10/28)
Length of Visible Light 11h 33m
Length of Day
10h 37m
Waxing Gibbous, 99% of the Moon is Illuminated
Oct 28
Waxing Gibbous
Oct 29
Full
Nov 6
Last Quarter
Nov 13
New
Nov 20
First Quarter

Hourly Weather History & Observations

Time (EDT) Temp. Dew Point Humidity Pressure Visibility Wind Dir Wind Speed Gust Speed Precip Events Conditions
12:51 AM 59.0 °F 51.1 °F 75% 29.87 in 10.0 mi NNE 11.5 mph - N/A   Partly Cloudy
1:51 AM 60.1 °F 46.0 °F 60% 29.86 in 10.0 mi NE 12.7 mph - N/A   Mostly Cloudy
2:51 AM 60.1 °F 48.0 °F 64% 29.85 in 10.0 mi NE 12.7 mph - N/A   Mostly Cloudy
3:51 AM 60.1 °F 48.9 °F 67% 29.85 in 10.0 mi ENE 11.5 mph - N/A   Overcast
4:51 AM 57.0 °F 51.1 °F 81% 29.84 in 10.0 mi NE 13.8 mph - 0.01 in Rain Light Rain
5:51 AM 55.9 °F 50.0 °F 80% 29.82 in 10.0 mi NNE 11.5 mph - 0.00 in Rain Light Rain
6:51 AM 55.0 °F 48.0 °F 77% 29.81 in 10.0 mi NE 10.4 mph - 0.03 in Rain Light Rain
7:51 AM 54.0 °F 48.9 °F 83% 29.83 in 8.0 mi NNE 12.7 mph - 0.08 in Rain Light Rain
8:51 AM 54.0 °F 50.0 °F 86% 29.83 in 10.0 mi North 11.5 mph - 0.08 in Rain Light Rain
9:51 AM 54.0 °F 48.0 °F 80% 29.82 in 10.0 mi NNE 12.7 mph - 0.02 in Rain Light Rain
10:47 AM 53.6 °F 46.4 °F 77% 29.79 in 10.0 mi NNE 15.0 mph - 0.00 in   Overcast
10:51 AM 54.0 °F 46.9 °F 77% 29.79 in 10.0 mi NNE 13.8 mph - 0.00 in   Overcast
11:27 AM 55.4 °F 46.4 °F 72% 29.79 in 10.0 mi NNE 16.1 mph 23.0 mph N/A   Mostly Cloudy
11:51 AM 55.4 °F 46.4 °F 72% 29.77 in 10.0 mi NNE 16.1 mph - N/A   Overcast
12:51 PM 57.0 °F 48.0 °F 72% 29.74 in 10.0 mi NNE 12.7 mph 25.3 mph N/A   Mostly Cloudy
1:51 PM 57.9 °F 48.9 °F 72% 29.73 in 10.0 mi NE 17.3 mph 24.2 mph N/A   Overcast
2:51 PM 55.9 °F 50.0 °F 80% 29.70 in 4.0 mi NE 16.1 mph 24.2 mph 0.02 in Rain Rain
3:05 PM 55.4 °F 50.0 °F 82% 29.71 in 6.0 mi NE 15.0 mph 24.2 mph 0.01 in Rain Light Rain
3:51 PM 55.0 °F 52.0 °F 89% 29.70 in 6.0 mi NE 10.4 mph - 0.10 in Rain Light Rain
4:51 PM 55.0 °F 51.1 °F 86% 29.68 in 10.0 mi NNE 13.8 mph - 0.03 in Rain Light Rain
5:51 PM 55.0 °F 51.1 °F 86% 29.68 in 10.0 mi NE 17.3 mph 23.0 mph 0.07 in Rain Light Rain
6:51 PM 55.0 °F 52.0 °F 89% 29.66 in 10.0 mi NNE 17.3 mph 28.8 mph 0.06 in Rain Light Rain
7:51 PM 55.0 °F 51.1 °F 86% 29.66 in 6.0 mi NE 21.9 mph 31.1 mph 0.03 in Rain Rain
8:51 PM 55.0 °F 52.0 °F 89% 29.63 in 4.0 mi NNE 23.0 mph 31.1 mph 0.08 in Rain Heavy Rain
9:51 PM 55.0 °F 51.1 °F 86% 29.62 in 6.0 mi NNE 20.7 mph 33.4 mph 0.14 in Rain Rain
10:51 PM 55.9 °F 51.1 °F 84% 29.61 in 10.0 mi North 18.4 mph 29.9 mph 0.01 in Rain Light Rain
11:16 PM 55.4 °F 51.8 °F 88% 29.61 in 10.0 mi NNE 21.9 mph 26.5 mph 0.02 in Rain Light Rain
11:51 PM 55.0 °F 50.0 °F 83% 29.59 in 10.0 mi NNE 18.4 mph 24.2 mph 0.02 in   Mostly Cloudy